TimeMST,TemperatureF,Dew PointF,Humidity,Sea Level PressureIn,VisibilityMPH,Wind Direction,Wind SpeedMPH,Gust SpeedMPH,PrecipitationIn,Events,Conditions,WindDirDegrees,DateUTC
12:53 AM,1.0,-4.0,79,30.21,10.0,ESE,3.5,-,N/A,,Clear,110,2013-01-07 07:53:00
1:53 AM,-2.9,-7.1,82,30.25,8.0,Calm,Calm,-,N/A,,Clear,0,2013-01-07 08:53:00
2:53 AM,-0.9,-5.1,83,30.24,10.0,West,4.6,-,N/A,,Clear,270,2013-01-07 09:53:00
3:53 AM,-0.9,-5.1,83,30.23,10.0,Calm,Calm,-,N/A,,Clear,0,2013-01-07 10:53:00
4:53 AM,1.0,-4.0,79,30.22,9.0,NNE,3.5,-,N/A,,Clear,20,2013-01-07 11:53:00
5:53 AM,1.0,-4.0,79,30.24,10.0,Calm,Calm,-,N/A,,Clear,0,2013-01-07 12:53:00
6:53 AM,-0.0,-6.0,76,30.26,8.0,NNW,4.6,-,N/A,,Clear,340,2013-01-07 13:53:00
7:53 AM,-0.0,-4.0,83,30.28,9.0,NNE,3.5,-,N/A,,Clear,30,2013-01-07 14:53:00
8:53 AM,7.0,3.0,84,30.25,10.0,Calm,Calm,-,N/A,,Clear,0,2013-01-07 15:53:00
9:53 AM,6.1,1.9,83,30.27,9.0,Calm,Calm,-,N/A,,Clear,0,2013-01-07 16:53:00
10:53 AM,10.0,3.9,76,30.22,10.0,NNE,4.6,-,N/A,,Clear,30,2013-01-07 17:53:00
11:53 AM,10.4,3.2,73,29.93,9.0,NNE,3.5,-,N/A,,Clear,30,2013-01-07 18:53:00
12:53 PM,10.9,3.9,73,30.17,9.0,Calm,Calm,-,N/A,,Clear,0,2013-01-07 19:53:00
1:53 PM,12.0,5.0,73,30.15,9.0,SW,3.5,-,N/A,,Clear,220,2013-01-07 20:53:00
2:53 PM,18.0,7.0,62,30.09,10.0,Calm,Calm,-,N/A,,Clear,0,2013-01-07 21:53:00
3:53 PM,15.8,6.8,68,29.83,10.0,North,4.6,-,N/A,,Clear,350,2013-01-07 22:53:00
4:53 PM,16.0,7.0,68,30.04,10.0,Calm,Calm,-,N/A,,Clear,0,2013-01-07 23:53:00
5:53 PM,10.9,3.0,70,30.05,9.0,Calm,Calm,-,N/A,,Clear,0,2013-01-08 00:53:00
6:53 PM,10.9,3.9,73,30.05,10.0,SW,12.7,-,N/A,,Clear,230,2013-01-08 01:53:00
7:53 PM,14.0,5.0,67,30.04,10.0,WSW,13.8,-,N/A,,Clear,240,2013-01-08 02:53:00
8:53 PM,16.0,7.0,68,29.97,10.0,West,12.7,-,N/A,,Clear,260,2013-01-08 03:53:00
9:53 PM,28.0,15.1,58,29.94,10.0,West,10.4,19.6,N/A,,Clear,280,2013-01-08 04:53:00
10:53 PM,12.9,6.1,74,29.99,10.0,SSE,4.6,-,N/A,,Clear,150,2013-01-08 05:53:00
11:53 PM,21.9,12.0,66,29.95,10.0,SSW,11.5,-,N/A,,Clear,200,2013-01-08 06:53:00